SCP
0 0 0 0 0 0 0 0 0 0 0 0 0 0 0 0 0 0 0 0 0 0 0 0 0 0 0 0 0 0 0 0 0 0 0 0 0 0 0 0 0 0 0 0 0 0 0 0 0 0 0 0 0 0
0 0 0 0 0 0 0 0 0 0 0 0 0 0 0 0 0 0 0 0 0 0 0 0 0 0 0 0 0 0 0 0 0 0 0 0 0 0 0 0 0 0 0 0 0 0 0 -0 -0 -0 -0 0 0 0
0 0 0 0 0 0 0 0 0 0 0 0 0 0 0 0 0 0 0 0 0 0 0 0 0 0 0 0 0 0 0 0 0 0 0 0 0 -0 0 -0 0 0 0 0 0 0 0 0 0 0 0 0 0 0
0 0 0 0 0 0 0 0 0 0 0 0 0 0 0 0 0 0 0 0 0 0 0 0 0 0 0 0 0 0 0 0 0 0 0 0 0 0 0 0 0 0 0 0 0 0 0 0 0 0 0 0 0 0
0 0 0 0 0 0 0 0 0 0 0 0 0 0 0 0 0 0 0 0 0 0 0 0 0 0 0 0 0 0 0 0 0 0 0 0 0 0 0 0 0 0 0 0 0 0 0 0 0 0 0 -0 0 0
0 0 0 0 0 0 0 0 0 0 0 0 0 0 0 0 0 0 0 0 0 0 0 0 0 0 0 0 0 0 0 0 0 0 0 0 0 0 -0 0 0 0 0 0 0 0 0 0 0 -0 -0 -0 -0 -0
0 0 0 0 0 0 0 0 0 0 0 0 0 0 0 0 0 0 0 0 0 0 0 0 0 0 0 0 0 0 0 0 0 -0 -0 -0 0 0 0 -0 0 0 0 0 0 0 0 0 -0 -0 -0 0 -0 -0
0 0 0 0 0 0 0 0 0 0 0 0 0 0 0 0 0 0 0 0 0 0 0 0 0 0 0 0 0 0 -0 -0 0 0 0 0 0 0 0 -0 -0 0 0 -0 0 0 -0 -0 -0 -0 -0 -0 -0 -0
0 0 0 0 0 0 0 0 0 0 0 0 0 0 0 0 0 0 0 0 0 0 0 0 0 0 0 0 0 0 -0 -0 -0 0 0 0 0 0 0 -0 -0 -0 -0 -0 0 0 -0 -0 -0 -0 -0 -0 -0 -0
0 0 0 0 0 0 0 0 0 0 0 0 0 0 0 0 0 -0 0 0 0 0 0 0 0 0 0 0 -0 -0 -0 -0 0 0 -0 -0 0 -0 -0 -0 -0 0 0 0 -0 -0 -0 -0 -0 -0 -0 -0 -0 0
0 0 0 0 0 0 0 0 0 0 0 0 0 0 0 -0 0 0 0 0 0 0 0 0 0 -0 -0 -0 0 0 0 -0 -0 -0 -0 -0 -0 0 0 0 0 0 0 -0 -0 -0 0 -0 0 0 0 0 0 -0
0 0 0 0 0 0 0 0 0 0 0 0 0 0 0 0 0 0 0 0 0 -0 0 0 0 0 0 0 -0 -0 0 0 -0 -0 -0 -0 0 0 0 0 0 0 0 -0 0 0 0 0 0 -0 0 -0 -0 -0
0 0 0 0 0 0 0 0 0 0 0 0 0 0 0 0 0 0 0 0 0 0 0 0 0 0 -0 -0 -0 0 -0 -0 -0 -0 -0 0 0 0 -0 -0 -0 0 0 0 0 0 0 0 0 0 -0 -0 -0 -0
0 0 0 0 0 0 0 -0 0 0 0 0 0 0 0 0 0 0 -0 0 0 0 0 0 0 0 -0 0 0 -0 -0 0 0 0 0 0 0 0 -0 -0 0 0 0 0 0 0 0 0 0 0 -0 -0 -0 -0
0 0 0 0 0 -0 -0 -0 -0 0 0 0 0 0 0 0 -0 0 0 0 0 0 0 0 0 -0 0 0 0 0 0 0 0 0 0 0 -0 -0 0 0 0 0 0 0 0 0 0 0 0 0 0 -0 -0 -0
0 0 0 0 0 0 0 0 0 0 0 0 0 0 0 0 0 0 0 0 0 0 0 0 0 0 0 0 0 0 0 0 -0 0 0 0 -0 0 0 -0 0 0 0 0 0 0 0 0 0 0 0 -0 -0 -0
0 0 0 0 0 0 0 0 0 0 0 0 0 0 0 0 0 0 0 0 0 0 0 0 0 0 0 0 0 0 -0 -0 0 0 0 0 0 0 0 0 0 0 0 0 0 0 0 0 0 0 0 0 0 -0
0 0 0 0 0 0 0 0 0 0 0 0 0 0 0 0 0 0 0 0 0 0 0 0 0 0 0 0 0 0 0 0 -0 -0 -0 0 0 0 0 0 0 0 0 0 0 0 0 0 0 0 0 -0 -0 0
0 0 0 -0 0 0 0 0 0 0 0 0 0 0 0 0 0 0 0 0 0 0 0 0 0 0 0 0 0 0 0 -0 -0 -0 -0 0 0 0 0 0 0 0 0 0 0 0 0 0 0 0 0 0 -0 0
-0 -0 0 0 0 0 0 0 0 0 0 0 0 0 0 0 0 0 0 0 0 0 0 0 0 0 -0 0 0 0 0 -0 0 0 -0 0 0 0 0 0 0 0 0 0 0 0 -0 -0 -0 -0 -0 -0 -0 -0
0 0 0 0 0 0 0 0 0 0 0 0 0 0 0 0 0 -0 -0 -0 0 0 0 0 -0 -0 -0 -0 -0 -0 0 -0 0 -0 0 0 0 0 0 0 0 0 0 0 0 0 -0 0 0 -0 -0 0 0 -0
0 0 0 0 0 0 0 -0 0 0 0 -0 -0 0 0 0 0 0 0 -0 -0 -0 0 0 0 0 0 -0 0 0 0 -0 -0 0 0 0 0 -0 -0 0 0 0 0 0 0 0 0 0 0 0 -0 -0 0 0
0 0 0 0 -0 0 -0 0 0 0 -0 -0 0 0 0 0 0 0 -0 -0 -0 0 0 0 0 0 0 0 0 0 0 0 0 0 0 0 0 0 0 0 0 0 0 0 0 0 0 0 0 0 0 0 0 0
-0 -0 -0 -0 -0 0 -0 0 -0 -0 0 0 0 0 0 0 0 0 0 0 0 0 0 0 -0 -0 0 0 0 0 0 0 0 0 0 0 0 0 0 0 0 0 0 0 0 0 0 0 0 0 0 0 0 0
-0 0 0 0 0 0 -0 -0 0 0 0 0 0 0 0 0 -0 -0 0 0 0 0 0 -0 -0 0 0 0 0 0 0 0 0 0 0 0 0 0 0 0 0 0 0 0 0 0 0 0 0 0 0 0 0 0
0 0 0 0 0 0 0 0 0 0 0 0 0 0 0 0 0 -0 -0 0 0 0 0 0 0 0 0 0 0 0 0 0 0 0 0 0 -0 0 0 0 -0 0 0 0 0 0 0 0 0 0 0 0 0 0
0 0 0 0 0 0 0 0 0 0 0 0 0 0 0 0 0 0 0 0 0 0 0 0 0 0 0 0 0 0 0 0 0 0 0 -0 -0 0 -0 0 0 0 0 0 0 0 -0 -0 0 -0 0 0 0 0
0 0 0 0 0 0 0 0 0 0 0 0 0 0 0 0 0 0 0 0 0 0 0 0 0 0 0 0 0 0 0 0 0 -0 0 0 0 -0 0 0 0 -0 0 0 0 0 0 -0 -0 -0 0 0 0 0
0 0 0 0 0 0 0 0 0 0 0 0 0 0 0 0 0 0 0 0 0 0 0 0 0 0 0 0 0 0 0 0 0 0 0 0 0 0 -0 -0 -0 -0 0 0 0 0 -0 0 0 -0 -0 0 0 0
0 0 0 0 0 0 0 0 0 0 0 0 0 0 0 0 0 0 0 0 0 0 0 0 0 0 0 0 0 0 0 0 0 0 0 0 0 0 -0 -0 -0 -0 0 -0 -0 0 0 0 0 0 0 0 0 0
0 0 0 0 0 0 0 0 0 0 0 0 0 0 0 0 0 0 0 0 0 0 0 0 0 0 0 0 0 0 0 0 0 0 0 0 0 0 0 -0 -0 -0 0 -0 -0 -0 -0 0 0 0 0 0 0 0
0 0 0 0 0 0 0 0 0 0 0 0 0 0 0 0 0 0 0 0 0 0 0 0 0 0 0 0 0 0 0 0 0 0 0 0 0 0 0 -0 0 0 -0 -0 0 0 0 0 0 0 0 0 0 0
0 0 0 0 0 0 0 0 0 0 0 0 0 0 0 0 0 0 0 0 0 0 0 0 0 0 0 0 0 0 0 0 0 0 0 0 0 0 0 0 0 0 0 0 0 0 0 0 0 0 0 0 0 0
Wind_Speed_500mb
36 35 34 33 32 31 31 30 30 30 27 26 26 27 28 25 23 24 26 18 13 21 56 69 59 50 40 22 8 15 20 6 7 6 5 5 4 7 7 9 2 5 4 6 6 9 13 2 5 4 20 28 37 42
34 33 32 32 31 32 34 32 30 26 28 27 26 27 28 21 24 22 32 31 29 38 67 89 98 91 89 85 57 32 23 26 9 5 6 8 10 9 11 6 7 8 9 3 3 10 11 18 13 42 36 33 41 49
32 32 32 32 32 32 30 30 30 27 29 28 28 29 29 25 23 26 37 40 41 40 66 33 42 31 21 28 25 27 26 39 29 40 9 8 11 4 4 8 9 5 6 7 2 11 18 42 70 38 37 50 65 56
31 32 32 31 31 30 30 31 30 29 29 29 30 32 26 24 29 32 42 40 38 23 15 24 24 76 60 49 52 53 65 50 45 35 19 7 7 11 6 9 8 10 5 9 25 29 36 30 23 49 60 55 52 49
31 30 30 30 30 31 32 34 35 34 33 34 34 29 27 33 32 34 42 41 21 28 12 42 88 21 34 35 37 45 70 75 48 20 11 11 12 13 11 5 19 18 18 10 21 20 18 33 37 56 45 47 48 58
30 29 30 31 32 33 32 30 29 30 31 29 29 32 32 29 28 35 11 6 10 23 12 10 35 30 33 26 29 28 38 47 44 20 17 34 53 27 7 13 17 42 51 62 39 41 39 52 40 36 48 51 63 63
29 29 29 28 28 28 28 29 31 32 28 31 36 38 35 30 28 23 16 8 15 23 14 16 16 18 37 31 13 16 16 25 29 17 18 28 16 20 6 25 15 33 46 48 35 30 30 22 35 47 45 56 55 60
29 28 27 26 26 27 26 26 27 31 36 41 41 38 38 32 37 41 16 11 27 41 11 8 10 18 13 13 14 19 14 12 15 10 6 7 8 14 7 17 30 30 31 27 22 23 40 40 38 44 44 46 57 62
26 26 26 26 29 31 31 31 34 40 42 38 36 36 35 18 16 8 15 20 17 15 8 11 5 8 17 16 15 11 7 4 6 5 5 5 2 1 9 32 34 39 30 29 38 23 25 30 35 39 42 49 54 60
27 26 25 26 30 28 27 29 31 35 34 28 26 6 7 7 14 22 5 11 25 14 14 11 10 8 12 8 9 10 5 5 4 3 1 1 4 15 23 37 40 27 16 24 23 20 26 41 40 39 41 44 46 52
28 28 30 31 33 27 28 30 30 29 23 14 7 8 16 33 24 6 6 11 14 8 13 14 18 10 19 8 6 9 6 4 5 4 4 3 5 18 49 50 41 31 22 26 30 33 27 34 32 36 43 42 42 46
32 32 32 37 31 28 29 28 19 20 20 19 24 34 21 5 5 5 7 5 8 6 7 8 14 20 18 13 9 7 4 6 5 14 6 7 6 42 47 54 34 20 22 19 20 22 22 25 28 32 35 38 38 41
33 34 36 31 28 29 27 19 14 17 22 18 6 7 7 6 6 8 7 3 4 5 5 17 13 12 9 13 9 4 6 5 18 6 6 4 26 44 49 48 30 20 20 23 17 20 23 22 24 35 40 40 37 38
33 31 28 27 26 23 18 14 12 11 7 4 6 8 7 6 8 4 1 3 14 17 34 37 15 10 8 3 4 5 5 5 8 10 5 6 39 42 50 42 25 28 27 28 26 18 18 24 31 34 43 45 43 41
21 22 24 25 21 17 16 16 13 12 6 6 7 8 8 4 8 8 15 12 24 28 42 22 13 8 5 3 4 4 5 6 3 6 6 26 40 45 52 48 35 25 28 27 31 27 23 20 27 33 35 41 47 44
19 23 19 11 11 11 9 10 18 15 6 8 11 8 16 8 10 19 26 31 39 46 34 4 4 3 6 6 2 5 5 3 7 7 34 36 36 43 51 46 37 33 25 24 30 25 27 27 23 27 28 37 50 46
22 25 15 20 16 11 7 8 14 11 10 8 13 23 34 37 30 35 33 38 34 29 5 4 7 2 4 3 4 2 6 7 16 28 30 21 30 42 42 43 36 29 27 19 26 25 31 35 26 24 27 31 42 44
29 18 19 18 18 14 12 20 10 11 14 26 15 41 37 44 42 43 37 33 32 26 9 5 6 4 4 4 5 6 13 22 23 22 24 27 29 38 40 36 31 29 26 17 28 19 25 29 35 34 33 34 43 44
24 19 18 20 9 6 6 11 14 10 29 26 35 48 50 48 47 41 40 37 33 33 15 8 6 6 5 5 7 13 24 21 23 23 28 32 28 32 33 37 38 18 13 13 27 30 29 25 23 28 34 34 47 49
21 18 16 14 13 5 6 8 10 12 11 14 27 41 31 34 45 41 37 34 28 15 14 9 8 14 15 28 22 29 34 32 29 27 38 37 33 32 37 40 32 4 6 12 23 28 33 37 33 29 33 37 43 53
18 14 16 22 23 18 10 10 13 13 14 14 25 31 22 27 30 33 38 47 31 13 12 30 36 35 31 36 39 38 34 34 37 43 37 31 36 31 30 37 20 5 4 8 14 19 24 33 38 38 39 41 43 49
16 15 13 16 20 15 18 18 14 11 12 21 32 36 21 16 29 43 41 23 19 41 36 38 41 41 39 42 40 37 33 31 35 27 18 24 29 19 21 29 13 3 2 6 11 12 18 21 28 34 35 39 42 46
13 13 11 10 14 12 9 12 11 9 6 8 7 6 8 9 12 13 9 17 22 39 46 44 37 32 38 39 41 38 34 30 31 23 25 26 23 14 13 22 12 15 4 12 9 9 13 19 23 29 28 30 36 43
16 8 7 8 14 8 7 10 12 10 10 5 5 7 8 10 10 8 7 12 38 38 37 38 40 36 35 37 38 35 28 25 28 33 36 31 21 11 6 16 3 8 14 13 7 8 11 19 24 27 29 32 35 38
7 10 9 12 11 9 8 6 9 6 7 7 5 8 6 6 4 6 7 9 15 23 30 45 49 41 39 40 29 27 24 27 32 34 29 25 17 11 5 3 9 14 17 12 6 5 7 12 17 21 25 23 28 34
9 13 16 12 8 8 5 5 4 4 5 6 8 9 8 6 8 9 5 4 10 12 3 25 34 34 34 32 32 30 25 20 28 33 25 23 18 13 7 3 16 19 15 15 7 9 8 13 11 10 17 21 19 22
8 9 18 17 11 8 6 12 16 8 8 6 5 5 5 7 8 5 12 6 7 15 8 9 15 19 28 25 28 31 26 20 26 23 13 19 17 19 14 6 13 14 15 15 14 4 7 12 9 7 10 15 16 15
19 9 10 17 13 13 6 4 5 6 6 8 10 5 8 6 4 14 16 20 18 7 11 16 18 18 22 21 8 24 20 17 22 14 18 19 17 27 18 17 11 13 29 18 19 12 11 10 6 6 10 11 15 14
12 11 10 7 12 12 11 9 8 8 11 11 5 4 7 8 16 28 35 21 18 6 15 18 21 23 19 16 8 14 16 16 23 24 20 18 22 22 21 19 12 12 22 21 23 17 14 9 12 13 13 11 8 11
12 23 12 10 8 10 13 19 9 17 24 23 17 16 17 20 37 48 36 28 33 35 25 20 19 20 22 18 19 24 18 17 16 18 21 17 18 21 22 23 18 16 13 26 25 25 24 20 14 14 9 7 8 7
8 22 11 12 7 8 22 20 22 27 24 18 19 16 17 18 25 55 44 44 41 36 49 48 42 37 37 36 29 23 14 9 10 13 14 12 9 12 16 18 19 17 17 19 25 23 31 30 25 18 15 17 16 12
13 14 8 6 3 3 8 5 4 2 9 14 16 23 20 14 17 41 51 41 40 47 44 37 27 18 6 8 11 11 9 8 6 13 20 18 13 13 19 18 18 17 16 25 26 24 28 30 27 26 29 31 25 21
9 11 12 12 7 6 7 4 2 4 12 15 20 26 26 16 12 37 39 39 40 41 43 42 38 32 25 24 26 19 8 11 8 8 10 11 15 19 18 17 20 23 16 12 31 25 25 26 24 24 21 8 11 22
Wind_Direction_500mb
290 291 293 296 299 301 302 305 305 305 311 317 318 322 325 326 325 324 313 321 301 276 284 271 269 267 270 262 225 289 334 10 314 265 266 281 267 31 307 342 208 204 228 232 208 212 253 162 106 143 240 281 305 303
287 289 292 294 296 296 298 300 301 302 303 311 313 316 317 315 316 314 307 315 304 282 269 288 285 280 263 260 261 262 246 299 278 331 343 334 306 283 237 255 196 225 189 279 248 257 295 291 262 307 305 298 305 303
286 288 290 290 291 298 302 303 300 296 300 308 310 314 316 316 316 313 305 308 309 298 305 278 296 291 289 278 259 236 247 234 247 255 259 245 261 240 274 248 249 271 161 231 292 249 256 295 301 296 307 307 309 304
282 285 287 289 290 293 301 300 299 298 302 306 308 313 313 320 302 296 292 298 294 285 281 289 292 301 306 272 258 244 248 253 256 250 219 232 246 213 244 257 236 229 309 231 258 280 279 283 275 308 307 312 311 312
280 283 286 289 291 293 297 296 295 295 294 297 303 307 303 296 305 302 298 298 274 229 277 295 306 326 311 296 282 245 243 248 240 216 211 226 223 227 234 236 255 217 246 230 263 262 272 287 302 308 309 312 311 316
278 283 288 291 293 294 296 298 303 305 305 306 307 306 305 306 307 316 318 268 284 31 286 305 303 306 349 335 308 283 255 237 215 205 224 234 236 209 255 261 244 253 258 256 259 276 283 293 297 309 307 310 311 311
281 287 291 293 295 295 295 295 298 305 307 307 304 305 300 297 288 270 245 262 272 293 322 300 288 281 321 329 311 298 246 222 212 223 226 237 231 204 244 258 282 275 276 276 270 303 299 288 303 314 312 305 311 316
282 287 289 291 292 295 302 307 308 306 305 306 303 296 292 289 279 279 326 260 249 268 234 269 272 305 313 304 311 285 254 221 229 247 244 224 194 191 248 328 328 331 325 297 308 293 294 298 301 310 313 320 319 319
284 286 287 291 294 290 288 293 298 303 307 310 303 301 295 266 217 188 319 298 238 200 220 239 260 277 321 318 297 285 262 247 224 243 241 211 177 182 276 289 300 314 294 287 313 315 303 303 316 318 323 324 325 325
284 282 284 297 304 302 305 304 305 309 316 315 315 300 249 210 215 302 60 204 199 217 225 254 245 271 297 308 291 303 272 251 261 256 306 260 78 291 336 344 353 343 344 313 298 298 317 316 323 321 323 326 328 330
278 279 285 295 304 298 298 301 306 312 322 334 304 263 269 304 301 232 229 212 203 220 217 249 240 248 276 233 249 253 281 258 275 342 298 41 21 347 335 337 353 338 337 321 319 308 306 313 317 324 331 334 337 343
276 277 284 294 293 293 296 302 297 299 312 306 299 293 298 284 224 223 220 209 217 236 239 239 265 269 272 242 236 267 267 327 311 320 10 359 358 333 332 344 349 8 16 4 347 337 330 331 334 336 343 345 347 353
269 279 287 286 285 289 293 282 275 293 302 306 242 246 237 250 227 225 229 199 292 245 247 296 299 271 267 240 268 289 302 6 307 20 332 336 329 325 341 348 335 317 338 346 357 17 18 9 9 9 3 2 357 359
276 280 280 284 290 289 279 259 262 287 299 268 258 270 223 204 239 204 126 295 285 268 306 304 271 248 272 286 7 290 13 307 38 5 316 323 315 330 350 353 334 348 339 327 326 332 354 8 13 8 12 16 11 7
275 275 279 299 285 266 255 249 238 245 251 255 244 251 234 286 274 261 280 291 311 305 317 306 278 242 287 37 8 323 9 41 178 260 276 335 330 342 357 4 6 340 341 349 343 331 330 340 3 9 11 10 8 8
273 278 296 245 265 243 256 241 219 233 227 239 237 262 265 250 249 316 319 324 334 333 331 290 293 292 44 323 283 34 74 227 261 251 310 325 322 351 352 1 359 358 0 5 7 8 3 350 344 1 8 10 12 13
256 266 293 260 294 282 224 194 195 216 230 233 249 247 256 273 270 281 295 299 315 336 314 338 325 345 137 283 46 26 197 228 270 302 327 335 349 354 356 358 358 354 353 3 16 38 47 48 44 38 27 10 11 20
256 276 266 261 281 317 240 200 211 228 237 239 239 258 255 263 272 282 285 297 297 306 307 254 291 312 288 62 194 243 266 300 289 286 323 357 344 350 352 354 351 350 344 2 7 16 32 43 47 43 34 32 27 32
255 257 249 256 301 318 247 211 208 248 233 240 253 263 268 274 279 279 282 283 280 283 276 245 216 208 213 228 266 316 334 321 296 301 316 345 347 350 356 352 348 347 3 39 43 46 36 26 35 29 25 29 32 36
242 245 238 253 262 257 268 252 229 257 255 241 249 261 259 267 281 278 277 277 263 256 213 212 209 235 248 293 298 311 318 327 326 310 313 335 351 356 0 357 352 29 83 73 61 53 47 49 49 41 42 45 40 39
249 249 237 229 235 231 258 243 241 241 264 252 264 270 266 270 260 246 264 272 268 226 227 240 248 256 262 270 277 282 295 306 313 318 303 315 350 346 358 2 4 83 94 103 72 54 46 50 46 47 52 55 51 45
239 224 230 221 220 221 238 229 239 275 272 262 280 272 255 248 258 261 258 228 230 235 230 240 253 263 260 260 268 275 277 298 301 304 266 290 330 343 323 351 5 298 347 107 68 56 52 49 40 38 42 51 55 54
235 252 233 232 210 222 255 228 222 238 242 253 257 255 243 243 248 266 237 224 235 238 241 240 247 253 254 262 268 269 274 280 291 277 280 293 309 305 316 343 312 242 186 123 80 71 68 59 49 41 49 58 59 59
234 237 238 225 213 256 236 221 220 247 243 237 247 260 260 234 258 242 245 242 252 246 224 216 219 236 252 264 266 265 269 270 277 278 278 273 299 287 307 340 208 143 153 140 108 92 82 69 60 55 61 65 66 63
229 229 208 228 223 228 225 248 210 207 251 227 231 252 261 242 246 254 237 264 294 249 235 223 228 237 243 244 254 261 256 266 275 275 274 256 272 261 262 350 172 147 168 167 145 159 122 91 72 60 59 59 63 65
227 214 197 210 222 206 259 290 261 278 281 246 242 244 246 230 221 241 248 270 325 7 212 220 222 224 224 233 251 262 255 259 268 271 267 243 237 224 213 265 200 187 178 194 190 171 121 100 93 76 60 59 63 61
248 244 219 225 229 211 281 266 264 246 257 259 250 262 232 231 239 239 270 311 269 293 249 197 207 221 233 250 258 251 263 254 238 270 258 214 205 191 194 169 194 196 186 202 204 172 154 132 106 94 65 57 62 73
232 262 200 224 237 227 257 252 254 249 248 244 296 266 292 320 311 324 319 343 329 297 216 192 199 215 227 243 260 232 246 244 248 201 187 197 197 186 196 188 200 217 200 204 199 168 126 119 132 98 78 76 59 79
230 213 212 208 201 218 233 217 245 246 286 300 270 289 298 280 328 342 6 24 47 130 193 206 213 226 255 270 237 200 229 240 186 178 194 190 181 191 191 191 205 186 185 188 191 182 167 127 110 104 117 105 95 79
238 201 210 211 203 213 235 211 252 277 296 316 313 293 298 322 6 31 50 71 79 86 104 118 125 139 136 146 136 128 135 169 178 177 173 179 182 190 200 200 199 183 199 202 193 187 187 188 192 177 210 198 206 209
225 187 204 211 247 248 246 254 251 278 292 301 315 315 326 342 31 33 60 72 73 94 97 94 102 104 115 119 125 130 130 111 169 196 179 199 238 215 216 197 194 199 195 203 203 225 212 210 215 216 232 245 246 241
198 197 198 182 139 119 135 150 185 285 343 353 5 17 13 26 19 29 54 79 86 79 80 87 94 74 40 44 98 101 109 149 162 168 167 168 180 197 197 198 193 206 228 217 218 215 220 219 214 219 233 236 223 215
109 123 121 119 135 167 181 145 85 38 17 13 19 17 17 24 29 21 50 71 81 87 94 100 104 108 106 92 100 115 105 43 72 146 180 187 197 198 192 202 224 231 230 221 207 202 212 217 201 168 153 162 279 255
Wind_Speed_850mb
36 35 34 33 32 31 31 30 30 30 27 26 26 27 28 25 23 24 26 18 13 21 56 69 59 50 40 22 8 15 20 6 7 6 5 5 4 7 7 9 2 5 4 6 6 9 13 2 5 4 20 28 37 42
34 33 32 32 31 32 34 32 30 26 28 27 26 27 28 21 24 22 32 31 29 38 67 89 98 91 89 85 57 32 23 26 9 5 6 8 10 9 11 6 7 8 9 3 3 10 11 18 13 42 36 33 41 49
32 32 32 32 32 32 30 30 30 27 29 28 28 29 29 25 23 26 37 40 41 40 66 33 42 31 21 28 25 27 26 39 29 40 9 8 11 4 4 8 9 5 6 7 2 11 18 42 70 38 37 50 65 56
31 32 32 31 31 30 30 31 30 29 29 29 30 32 26 24 29 32 42 40 38 23 15 24 24 76 60 49 52 53 65 50 45 35 19 7 7 11 6 9 8 10 5 9 25 29 36 30 23 49 60 55 52 49
31 30 30 30 30 31 32 34 35 34 33 34 34 29 27 33 32 34 42 41 21 28 12 42 88 21 34 35 37 45 70 75 48 20 11 11 12 13 11 5 19 18 18 10 21 20 18 33 37 56 45 47 48 58
30 29 30 31 32 33 32 30 29 30 31 29 29 32 32 29 28 35 11 6 10 23 12 10 35 30 33 26 29 28 38 47 44 20 17 34 53 27 7 13 17 42 51 62 39 41 39 52 40 36 48 51 63 63
29 29 29 28 28 28 28 29 31 32 28 31 36 38 35 30 28 23 16 8 15 23 14 16 16 18 37 31 13 16 16 25 29 17 18 28 16 20 6 25 15 33 46 48 35 30 30 22 35 47 45 56 55 60
29 28 27 26 26 27 26 26 27 31 36 41 41 38 38 32 37 41 16 11 27 41 11 8 10 18 13 13 14 19 14 12 15 10 6 7 8 14 7 17 30 30 31 27 22 23 40 40 38 44 44 46 57 62
26 26 26 26 29 31 31 31 34 40 42 38 36 36 35 18 16 8 15 20 17 15 8 11 5 8 17 16 15 11 7 4 6 5 5 5 2 1 9 32 34 39 30 29 38 23 25 30 35 39 42 49 54 60
27 26 25 26 30 28 27 29 31 35 34 28 26 6 7 7 14 22 5 11 25 14 14 11 10 8 12 8 9 10 5 5 4 3 1 1 4 15 23 37 40 27 16 24 23 20 26 41 40 39 41 44 46 52
28 28 30 31 33 27 28 30 30 29 23 14 7 8 16 33 24 6 6 11 14 8 13 14 18 10 19 8 6 9 6 4 5 4 4 3 5 18 49 50 41 31 22 26 30 33 27 34 32 36 43 42 42 46
32 32 32 37 31 28 29 28 19 20 20 19 24 34 21 5 5 5 7 5 8 6 7 8 14 20 18 13 9 7 4 6 5 14 6 7 6 42 47 54 34 20 22 19 20 22 22 25 28 32 35 38 38 41
33 34 36 31 28 29 27 19 14 17 22 18 6 7 7 6 6 8 7 3 4 5 5 17 13 12 9 13 9 4 6 5 18 6 6 4 26 44 49 48 30 20 20 23 17 20 23 22 24 35 40 40 37 38
33 31 28 27 26 23 18 14 12 11 7 4 6 8 7 6 8 4 1 3 14 17 34 37 15 10 8 3 4 5 5 5 8 10 5 6 39 42 50 42 25 28 27 28 26 18 18 24 31 34 43 45 43 41
21 22 24 25 21 17 16 16 13 12 6 6 7 8 8 4 8 8 15 12 24 28 42 22 13 8 5 3 4 4 5 6 3 6 6 26 40 45 52 48 35 25 28 27 31 27 23 20 27 33 35 41 47 44
19 23 19 11 11 11 9 10 18 15 6 8 11 8 16 8 10 19 26 31 39 46 34 4 4 3 6 6 2 5 5 3 7 7 34 36 36 43 51 46 37 33 25 24 30 25 27 27 23 27 28 37 50 46
22 25 15 20 16 11 7 8 14 11 10 8 13 23 34 37 30 35 33 38 34 29 5 4 7 2 4 3 4 2 6 7 16 28 30 21 30 42 42 43 36 29 27 19 26 25 31 35 26 24 27 31 42 44
29 18 19 18 18 14 12 20 10 11 14 26 15 41 37 44 42 43 37 33 32 26 9 5 6 4 4 4 5 6 13 22 23 22 24 27 29 38 40 36 31 29 26 17 28 19 25 29 35 34 33 34 43 44
24 19 18 20 9 6 6 11 14 10 29 26 35 48 50 48 47 41 40 37 33 33 15 8 6 6 5 5 7 13 24 21 23 23 28 32 28 32 33 37 38 18 13 13 27 30 29 25 23 28 34 34 47 49
21 18 16 14 13 5 6 8 10 12 11 14 27 41 31 34 45 41 37 34 28 15 14 9 8 14 15 28 22 29 34 32 29 27 38 37 33 32 37 40 32 4 6 12 23 28 33 37 33 29 33 37 43 53
18 14 16 22 23 18 10 10 13 13 14 14 25 31 22 27 30 33 38 47 31 13 12 30 36 35 31 36 39 38 34 34 37 43 37 31 36 31 30 37 20 5 4 8 14 19 24 33 38 38 39 41 43 49
16 15 13 16 20 15 18 18 14 11 12 21 32 36 21 16 29 43 41 23 19 41 36 38 41 41 39 42 40 37 33 31 35 27 18 24 29 19 21 29 13 3 2 6 11 12 18 21 28 34 35 39 42 46
13 13 11 10 14 12 9 12 11 9 6 8 7 6 8 9 12 13 9 17 22 39 46 44 37 32 38 39 41 38 34 30 31 23 25 26 23 14 13 22 12 15 4 12 9 9 13 19 23 29 28 30 36 43
16 8 7 8 14 8 7 10 12 10 10 5 5 7 8 10 10 8 7 12 38 38 37 38 40 36 35 37 38 35 28 25 28 33 36 31 21 11 6 16 3 8 14 13 7 8 11 19 24 27 29 32 35 38
7 10 9 12 11 9 8 6 9 6 7 7 5 8 6 6 4 6 7 9 15 23 30 45 49 41 39 40 29 27 24 27 32 34 29 25 17 11 5 3 9 14 17 12 6 5 7 12 17 21 25 23 28 34
9 13 16 12 8 8 5 5 4 4 5 6 8 9 8 6 8 9 5 4 10 12 3 25 34 34 34 32 32 30 25 20 28 33 25 23 18 13 7 3 16 19 15 15 7 9 8 13 11 10 17 21 19 22
8 9 18 17 11 8 6 12 16 8 8 6 5 5 5 7 8 5 12 6 7 15 8 9 15 19 28 25 28 31 26 20 26 23 13 19 17 19 14 6 13 14 15 15 14 4 7 12 9 7 10 15 16 15
19 9 10 17 13 13 6 4 5 6 6 8 10 5 8 6 4 14 16 20 18 7 11 16 18 18 22 21 8 24 20 17 22 14 18 19 17 27 18 17 11 13 29 18 19 12 11 10 6 6 10 11 15 14
12 11 10 7 12 12 11 9 8 8 11 11 5 4 7 8 16 28 35 21 18 6 15 18 21 23 19 16 8 14 16 16 23 24 20 18 22 22 21 19 12 12 22 21 23 17 14 9 12 13 13 11 8 11
12 23 12 10 8 10 13 19 9 17 24 23 17 16 17 20 37 48 36 28 33 35 25 20 19 20 22 18 19 24 18 17 16 18 21 17 18 21 22 23 18 16 13 26 25 25 24 20 14 14 9 7 8 7
8 22 11 12 7 8 22 20 22 27 24 18 19 16 17 18 25 55 44 44 41 36 49 48 42 37 37 36 29 23 14 9 10 13 14 12 9 12 16 18 19 17 17 19 25 23 31 30 25 18 15 17 16 12
13 14 8 6 3 3 8 5 4 2 9 14 16 23 20 14 17 41 51 41 40 47 44 37 27 18 6 8 11 11 9 8 6 13 20 18 13 13 19 18 18 17 16 25 26 24 28 30 27 26 29 31 25 21
9 11 12 12 7 6 7 4 2 4 12 15 20 26 26 16 12 37 39 39 40 41 43 42 38 32 25 24 26 19 8 11 8 8 10 11 15 19 18 17 20 23 16 12 31 25 25 26 24 24 21 8 11 22
Wind_Direction_850mb
290 291 293 296 299 301 302 305 305 305 311 317 318 322 325 326 325 324 313 321 301 276 284 271 269 267 270 262 225 289 334 10 314 265 266 281 267 31 307 342 208 204 228 232 208 212 253 162 106 143 240 281 305 303
287 289 292 294 296 296 298 300 301 302 303 311 313 316 317 315 316 314 307 315 304 282 269 288 285 280 263 260 261 262 246 299 278 331 343 334 306 283 237 255 196 225 189 279 248 257 295 291 262 307 305 298 305 303
286 288 290 290 291 298 302 303 300 296 300 308 310 314 316 316 316 313 305 308 309 298 305 278 296 291 289 278 259 236 247 234 247 255 259 245 261 240 274 248 249 271 161 231 292 249 256 295 301 296 307 307 309 304
282 285 287 289 290 293 301 300 299 298 302 306 308 313 313 320 302 296 292 298 294 285 281 289 292 301 306 272 258 244 248 253 256 250 219 232 246 213 244 257 236 229 309 231 258 280 279 283 275 308 307 312 311 312
280 283 286 289 291 293 297 296 295 295 294 297 303 307 303 296 305 302 298 298 274 229 277 295 306 326 311 296 282 245 243 248 240 216 211 226 223 227 234 236 255 217 246 230 263 262 272 287 302 308 309 312 311 316
278 283 288 291 293 294 296 298 303 305 305 306 307 306 305 306 307 316 318 268 284 31 286 305 303 306 349 335 308 283 255 237 215 205 224 234 236 209 255 261 244 253 258 256 259 276 283 293 297 309 307 310 311 311
281 287 291 293 295 295 295 295 298 305 307 307 304 305 300 297 288 270 245 262 272 293 322 300 288 281 321 329 311 298 246 222 212 223 226 237 231 204 244 258 282 275 276 276 270 303 299 288 303 314 312 305 311 316
282 287 289 291 292 295 302 307 308 306 305 306 303 296 292 289 279 279 326 260 249 268 234 269 272 305 313 304 311 285 254 221 229 247 244 224 194 191 248 328 328 331 325 297 308 293 294 298 301 310 313 320 319 319
284 286 287 291 294 290 288 293 298 303 307 310 303 301 295 266 217 188 319 298 238 200 220 239 260 277 321 318 297 285 262 247 224 243 241 211 177 182 276 289 300 314 294 287 313 315 303 303 316 318 323 324 325 325
284 282 284 297 304 302 305 304 305 309 316 315 315 300 249 210 215 302 60 204 199 217 225 254 245 271 297 308 291 303 272 251 261 256 306 260 78 291 336 344 353 343 344 313 298 298 317 316 323 321 323 326 328 330
278 279 285 295 304 298 298 301 306 312 322 334 304 263 269 304 301 232 229 212 203 220 217 249 240 248 276 233 249 253 281 258 275 342 298 41 21 347 335 337 353 338 337 321 319 308 306 313 317 324 331 334 337 343
276 277 284 294 293 293 296 302 297 299 312 306 299 293 298 284 224 223 220 209 217 236 239 239 265 269 272 242 236 267 267 327 311 320 10 359 358 333 332 344 349 8 16 4 347 337 330 331 334 336 343 345 347 353
269 279 287 286 285 289 293 282 275 293 302 306 242 246 237 250 227 225 229 199 292 245 247 296 299 271 267 240 268 289 302 6 307 20 332 336 329 325 341 348 335 317 338 346 357 17 18 9 9 9 3 2 357 359
276 280 280 284 290 289 279 259 262 287 299 268 258 270 223 204 239 204 126 295 285 268 306 304 271 248 272 286 7 290 13 307 38 5 316 323 315 330 350 353 334 348 339 327 326 332 354 8 13 8 12 16 11 7
275 275 279 299 285 266 255 249 238 245 251 255 244 251 234 286 274 261 280 291 311 305 317 306 278 242 287 37 8 323 9 41 178 260 276 335 330 342 357 4 6 340 341 349 343 331 330 340 3 9 11 10 8 8
273 278 296 245 265 243 256 241 219 233 227 239 237 262 265 250 249 316 319 324 334 333 331 290 293 292 44 323 283 34 74 227 261 251 310 325 322 351 352 1 359 358 0 5 7 8 3 350 344 1 8 10 12 13
256 266 293 260 294 282 224 194 195 216 230 233 249 247 256 273 270 281 295 299 315 336 314 338 325 345 137 283 46 26 197 228 270 302 327 335 349 354 356 358 358 354 353 3 16 38 47 48 44 38 27 10 11 20
256 276 266 261 281 317 240 200 211 228 237 239 239 258 255 263 272 282 285 297 297 306 307 254 291 312 288 62 194 243 266 300 289 286 323 357 344 350 352 354 351 350 344 2 7 16 32 43 47 43 34 32 27 32
255 257 249 256 301 318 247 211 208 248 233 240 253 263 268 274 279 279 282 283 280 283 276 245 216 208 213 228 266 316 334 321 296 301 316 345 347 350 356 352 348 347 3 39 43 46 36 26 35 29 25 29 32 36
242 245 238 253 262 257 268 252 229 257 255 241 249 261 259 267 281 278 277 277 263 256 213 212 209 235 248 293 298 311 318 327 326 310 313 335 351 356 0 357 352 29 83 73 61 53 47 49 49 41 42 45 40 39
249 249 237 229 235 231 258 243 241 241 264 252 264 270 266 270 260 246 264 272 268 226 227 240 248 256 262 270 277 282 295 306 313 318 303 315 350 346 358 2 4 83 94 103 72 54 46 50 46 47 52 55 51 45
239 224 230 221 220 221 238 229 239 275 272 262 280 272 255 248 258 261 258 228 230 235 230 240 253 263 260 260 268 275 277 298 301 304 266 290 330 343 323 351 5 298 347 107 68 56 52 49 40 38 42 51 55 54
235 252 233 232 210 222 255 228 222 238 242 253 257 255 243 243 248 266 237 224 235 238 241 240 247 253 254 262 268 269 274 280 291 277 280 293 309 305 316 343 312 242 186 123 80 71 68 59 49 41 49 58 59 59
234 237 238 225 213 256 236 221 220 247 243 237 247 260 260 234 258 242 245 242 252 246 224 216 219 236 252 264 266 265 269 270 277 278 278 273 299 287 307 340 208 143 153 140 108 92 82 69 60 55 61 65 66 63
229 229 208 228 223 228 225 248 210 207 251 227 231 252 261 242 246 254 237 264 294 249 235 223 228 237 243 244 254 261 256 266 275 275 274 256 272 261 262 350 172 147 168 167 145 159 122 91 72 60 59 59 63 65
227 214 197 210 222 206 259 290 261 278 281 246 242 244 246 230 221 241 248 270 325 7 212 220 222 224 224 233 251 262 255 259 268 271 267 243 237 224 213 265 200 187 178 194 190 171 121 100 93 76 60 59 63 61
248 244 219 225 229 211 281 266 264 246 257 259 250 262 232 231 239 239 270 311 269 293 249 197 207 221 233 250 258 251 263 254 238 270 258 214 205 191 194 169 194 196 186 202 204 172 154 132 106 94 65 57 62 73
232 262 200 224 237 227 257 252 254 249 248 244 296 266 292 320 311 324 319 343 329 297 216 192 199 215 227 243 260 232 246 244 248 201 187 197 197 186 196 188 200 217 200 204 199 168 126 119 132 98 78 76 59 79
230 213 212 208 201 218 233 217 245 246 286 300 270 289 298 280 328 342 6 24 47 130 193 206 213 226 255 270 237 200 229 240 186 178 194 190 181 191 191 191 205 186 185 188 191 182 167 127 110 104 117 105 95 79
238 201 210 211 203 213 235 211 252 277 296 316 313 293 298 322 6 31 50 71 79 86 104 118 125 139 136 146 136 128 135 169 178 177 173 179 182 190 200 200 199 183 199 202 193 187 187 188 192 177 210 198 206 209
225 187 204 211 247 248 246 254 251 278 292 301 315 315 326 342 31 33 60 72 73 94 97 94 102 104 115 119 125 130 130 111 169 196 179 199 238 215 216 197 194 199 195 203 203 225 212 210 215 216 232 245 246 241
198 197 198 182 139 119 135 150 185 285 343 353 5 17 13 26 19 29 54 79 86 79 80 87 94 74 40 44 98 101 109 149 162 168 167 168 180 197 197 198 193 206 228 217 218 215 220 219 214 219 233 236 223 215
109 123 121 119 135 167 181 145 85 38 17 13 19 17 17 24 29 21 50 71 81 87 94 100 104 108 106 92 100 115 105 43 72 146 180 187 197 198 192 202 224 231 230 221 207 202 212 217 201 168 153 162 279 255